カタログに戻る

PRAETORIAN SDA_610

運用中軍事PO
NORAD 65573·PAYLOAD·🇺🇸 United States

打ち上げ Sep 10, 2025 から Vandenberg Space Force Base

Loading…

次のパス (今後24時間)

TLE

最新Source: Space-Track

元期: Sep 14, 2026, 12:13 UTC

1 65573U 25203J   26257.50964856  .00000053  00000-0  37733-4 0  9998
2 65573  81.2982 288.1138 0005974 324.2102  35.8653 13.83533874 51043

AllMySatでPRAETORIAN SDA_610をリアルタイム追跡

Download on the App Store